FW7376 Weather Reports


Display with metric or nautical units.
time (UTC)temp
F
wind
direction
speed
MPH
gust
MPH
rain 1hr
in
rain 24hr
in
rain mn
in
humidity
%
barometer
mb
20260506091105 65 202 6.0 12.0 0.00 0.00 0.00 59 1008.5
20260506090604 65 189 7.0 17.0 0.00 0.00 0.00 59 1008.5
20260506090105 65 191 7.0 16.0 0.00 0.00 0.00 59 1008.5
20260506085604 65 190 7.0 13.0 0.00 0.00 0.00 58 1008.6
20260506084104 65 227 7.0 13.0 0.00 0.00 0.00 57 1008.8
20260506083105 65 192 7.0 18.0 0.00 0.00 0.00 57 1008.8
20260506081605 65 218 9.0 17.0 0.00 0.00 0.00 57 1008.9
20260506081105 65 207 7.0 20.0 0.00 0.00 0.00 57 1008.8
20260506080605 66 202 7.0 16.0 0.00 0.00 0.00 57 1008.8
20260506072604 66 197 11.0 25.0 0.00 0.00 0.00 55 1008.7
20260506072104 66 184 8.0 23.0 0.00 0.00 0.00 54 1008.9
20260506071104 66 196 9.0 23.0 0.00 0.00 0.00 54 1009.0
20260506070104 66 199 10.0 24.0 0.00 0.00 0.00 53 1009.1
20260506062105 67 179 9.0 20.0 0.00 0.00 0.00 49 1009.5
20260506061604 67 202 11.0 17.0 0.00 0.00 0.00 49 1009.6
20260506060105 67 201 5.0 23.0 0.00 0.00 0.00 48 1009.8
20260506050604 67 186 6.0 14.0 0.00 0.00 0.00 45 1010.4
20260506045105 67 182 6.0 12.0 0.00 0.00 0.00 45 1010.5
20260506044604 67 184 7.0 13.0 0.00 0.00 0.00 45 1010.4
20260506043104 68 193 7.0 18.0 0.00 0.00 0.00 43 1010.5
20260506042104 68 186 9.0 18.0 0.00 0.00 0.00 42 1010.5
20260506041109 68 180 8.0 14.0 0.00 0.00 0.00 42 1010.4
20260506040604 68 195 7.0 13.0 0.00 0.00 0.00 41 1010.4
20260506040104 69 192 6.0 17.0 0.00 0.00 0.00 41 1010.4
20260506035605 69 193 7.0 16.0 0.00 0.00 0.00 40 1010.4
20260506035104 69 180 6.0 12.0 0.00 0.00 0.00 40 1010.4
20260506034104 69 183 6.0 12.0 0.00 0.00 0.00 39 1010.3
20260506031605 69 192 8.0 20.0 0.00 0.00 0.00 38 1010.3
20260506031105 70 181 7.0 14.0 0.00 0.00 0.00 38 1010.2
20260506030604 70 196 8.0 15.0 0.00 0.00 0.00 37 1010.2
20260506030104 70 196 5.0 12.0 0.00 0.00 0.00 36 1010.2
20260506024604 71 198 4.0 10.0 0.00 0.00 0.00 34 1010.4
20260506024105 72 196 5.0 12.0 0.00 0.00 0.00 33 1010.4
20260506023104 72 204 5.0 12.0 0.00 0.00 0.00 33 1010.4
20260506021606 72 221 5.0 13.0 0.00 0.00 0.00 32 1010.4
20260506020106 72 232 5.0 10.0 0.00 0.00 0.00 32 1010.4
20260506014606 72 226 5.0 12.0 0.00 0.00 0.00 31 1010.4
20260506012606 72 227 4.0 12.0 0.00 0.00 0.00 32 1010.1
20260506010606 73 208 6.0 12.0 0.00 0.00 0.00 30 1009.9
20260506005606 74 220 5.0 12.0 0.00 0.00 0.00 30 1009.8
20260506004106 74 204 8.0 21.0 0.00 0.00 0.00 30 1009.6
20260506002105 74 207 7.0 13.0 0.00 0.00 0.00 31 1009.3
20260506001606 74 209 5.0 9.0 0.00 0.00 0.00 31 1009.3
20260506001106 74 198 5.0 9.0 0.00 0.00 0.00 32 1009.2
20260506000606 74 198 4.0 10.0 0.00 0.00 0.00 32 1009.2
20260505235105 75 217 6.0 13.0 0.00 0.00 0.00 31 1009.1
20260505234106 76 201 7.0 15.0 0.00 0.00 0.00 30 1009.1
20260505233106 76 194 6.0 13.0 0.00 0.00 0.00 30 1009.2
20260505232105 76 204 6.0 15.0 0.00 0.00 0.00 31 1009.1
20260505231106 76 197 7.0 15.0 0.00 0.00 0.00 31 1009.0
20260505230106 77 195 6.0 12.0 0.00 0.00 0.00 30 1009.0
20260505225605 77 192 9.0 21.0 0.00 0.00 0.00 30 1009.0
20260505224606 77 190 6.0 18.0 0.00 0.00 0.00 31 1009.0
20260505223105 77 222 5.0 14.0 0.00 0.00 0.00 32 1009.0
20260505222106 77 212 7.0 20.0 0.00 0.00 0.00 31 1009.1
20260505215605 78 220 7.0 20.0 0.00 0.00 0.00 32 1009.1
20260505215105 78 218 7.0 14.0 0.00 0.00 0.00 31 1009.1
20260505214605 78 226 9.0 16.0 0.00 0.00 0.00 32 1009.2
20260505213105 79 217 7.0 12.0 0.00 0.00 0.00 32 1009.0
20260505212606 79 224 5.0 14.0 0.00 0.00 0.00 32 1009.0
20260505212106 80 231 5.0 12.0 0.00 0.00 0.00 32 1008.9
20260505210105 80 245 10.0 20.0 0.00 0.00 0.00 26 1008.8
20260505205105 81 221 8.0 15.0 0.00 0.00 0.00 25 1008.8
20260505204605 81 222 11.0 20.0 0.00 0.00 0.00 25 1008.9
20260505204105 82 210 9.0 17.0 0.00 0.00 0.00 25 1008.9
20260505203105 82 230 9.0 17.0 0.00 0.00 0.00 27 1009.0
20260505202606 81 221 7.0 17.0 0.00 0.00 0.00 28 1008.9
20260505202105 80 240 6.0 15.0 0.00 0.00 0.00 29 1008.9
20260505201605 80 242 12.0 21.0 0.00 0.00 0.00 27 1008.9
20260505201105 81 237 7.0 17.0 0.00 0.00 0.00 27 1008.9
20260505200605 81 251 12.0 18.0 0.00 0.00 0.00 25 1009.2
20260505195605 81 260 11.0 16.0 0.00 0.00 0.00 28 1009.2
20260505193605 81 212 6.0 12.0 0.00 0.00 0.00 34 1009.5
20260505192605 80 228 10.0 20.0 0.00 0.00 0.00 32 1009.6
20260505192105 81 229 7.0 16.0 0.00 0.00 0.00 31 1009.6
20260505191605 81 246 7.0 15.0 0.00 0.00 0.00 30 1009.7
20260505191105 81 257 6.0 14.0 0.00 0.00 0.00 32 1009.8
20260505184605 81 221 8.0 18.0 0.00 0.00 0.00 32 1010.1
20260505184105 81 223 7.0 14.0 0.00 0.00 0.00 33 1010.0
20260505183105 80 235 8.0 17.0 0.00 0.00 0.00 33 1010.2
20260505182606 80 217 9.0 15.0 0.00 0.00 0.00 33 1010.2
20260505182105 80 213 8.0 17.0 0.00 0.00 0.00 32 1010.2
20260505181605 80 224 7.0 20.0 0.00 0.00 0.00 34 1010.4
20260505180606 80 219 7.0 12.0 0.00 0.00 0.00 33 1010.4
20260505180105 80 236 8.0 14.0 0.00 0.00 0.00 33 1010.5
20260505175605 80 242 8.0 13.0 0.00 0.00 0.00 34 1010.6
20260505175105 80 231 8.0 15.0 0.00 0.00 0.00 32 1010.7
20260505174605 80 251 5.0 13.0 0.00 0.00 0.00 35 1010.6
20260505173605 79 220 6.0 13.0 0.00 0.00 0.00 35 1010.7
20260505173105 79 231 8.0 15.0 0.00 0.00 0.00 36 1010.7
20260505172605 79 228 8.0 15.0 0.00 0.00 0.00 34 1010.8
20260505162605 77 217 5.0 14.0 0.00 0.00 0.00 40 1011.5
20260505162105 77 223 10.0 15.0 0.00 0.00 0.00 38 1011.8
20260505161605 77 258 4.0 12.0 0.00 0.00 0.00 38 1011.8
20260505160105 77 258 5.0 12.0 0.00 0.00 0.00 40 1012.0
20260505153105 75 247 7.0 16.0 0.00 0.00 0.00 41 1012.1
20260505140605 72 208 5.0 12.0 0.00 0.00 0.00 46 1012.1
20260505124605 66 189 5.0 10.0 0.00 0.00 0.00 52 1012.8
20260505123604 66 223 4.0 12.0 0.00 0.00 0.00 53 1012.9
20260505122605 65 218 5.0 12.0 0.00 0.00 0.00 54 1013.1
20260505115105 64 231 5.0 10.0 0.00 0.00 0.00 54 1013.0
20260505114105 64 219 2.0 12.0 0.00 0.00 0.00 54 1012.9
20260505112605 64 226 5.0 12.0 0.00 0.00 0.00 53 1012.7
20260505112104 64 244 5.0 12.0 0.00 0.00 0.00 54 1012.6
20260505111604 63 238 5.0 10.0 0.00 0.00 0.00 54 1012.6
20260505102105 64 226 4.0 8.0 0.00 0.00 0.00 52 1011.9
20260505101104 64 223 5.0 12.0 0.00 0.00 0.00 51 1011.9
20260505100105 64 231 5.0 10.0 0.00 0.00 0.00 51 1011.8
20260505095104 65 219 5.0 12.0 0.00 0.00 0.00 51 1011.9
20260505094604 65 220 5.0 9.0 0.00 0.00 0.00 50 1011.8
20260505091604 64 224 5.0 12.0 0.00 0.00 0.00 52 1011.7